Vorticity
4 9 13 15 14 13 10 8 5 4 3 3 4 5 5 5 6 7 8 9 9 8 7 6 5 4 3 2 2 3 4 5 4 4 4 5 6 6 6 5 3 3 4 5 5 7 9 9 9 9 9 10 10 10 10 10 10 9 9 8 7 7 7 7 8 9 8 8 8 8 8 8 8 8 8 9 10 11 12 13 14 15 14 14 13
8 12 16 18 18 18 16 14 11 7 5 3 2 2 3 4 4 5 5 6 7 8 8 8 8 7 6 5 4 4 5 5 4 4 4 5 6 5 3 2 3 5 6 6 7 9 10 9 9 9 9 10 10 9 9 9 8 8 7 7 7 7 8 8 9 9 9 9 9 9 8 8 8 8 9 11 12 13 14 15 14 14 13 13 13
10 10 12 15 17 16 16 15 15 13 11 9 7 6 5 6 7 9 9 8 8 8 8 10 10 10 10 8 7 6 7 7 6 5 4 4 4 4 4 4 6 6 6 8 10 10 10 10 10 9 8 8 8 8 8 8 7 8 8 8 8 9 10 10 10 10 10 10 9 8 8 8 8 9 10 12 13 14 14 13 13 13 13 13 13
9 6 4 7 10 11 10 9 9 9 8 7 7 7 8 10 14 16 17 17 17 16 14 13 12 12 11 10 9 8 8 7 6 5 4 4 5 6 7 7 6 6 8 11 12 12 11 11 10 10 9 9 9 9 9 9 9 9 9 9 10 10 11 10 10 10 9 9 9 9 9 9 10 11 12 13 14 13 13 12 13 13 13 13 13
18 18 15 14 14 14 13 11 8 7 6 7 10 14 17 17 15 14 15 17 19 19 18 16 15 14 14 12 12 10 9 8 6 6 6 6 7 7 6 5 6 9 12 13 14 13 12 11 11 10 10 10 10 10 10 10 10 10 10 10 10 10 10 9 10 10 10 10 10 10 9 10 12 14 15 15 15 14 13 13 13 13 12 11 10
16 18 19 17 16 15 15 15 14 13 14 15 15 16 15 14 12 14 16 18 19 18 17 16 15 15 14 13 11 10 8 7 7 8 9 9 8 5 4 6 10 14 15 15 14 13 12 12 12 12 12 12 12 11 11 10 10 10 9 10 10 10 10 10 11 11 11 11 11 11 12 13 15 17 17 17 16 14 13 12 12 11 10 9 9
13 13 12 11 10 10 9 9 10 10 10 9 9 10 12 14 17 19 18 18 18 17 15 14 12 11 10 9 8 7 8 9 10 10 9 6 3 3 6 12 15 15 15 15 14 13 12 13 13 13 13 12 11 11 10 10 9 9 9 10 10 11 12 11 11 11 11 12 13 14 16 17 17 17 17 15 13 12 12 11 10 9 9 10 10
13 13 13 12 10 9 9 9 9 9 9 9 12 15 18 19 19 17 15 13 12 10 10 9 8 8 9 9 10 11 10 10 8 5 3 3 6 10 14 16 16 14 14 13 13 13 14 13 13 13 12 11 11 10 9 9 10 10 11 11 12 12 12 11 11 12 13 15 16 18 18 18 17 16 14 12 12 12 12 10 10 11 12 12 11
7 7 8 9 10 11 11 12 12 12 13 16 18 19 19 17 14 10 9 8 8 9 10 11 11 11 11 10 8 7 5 3 3 4 7 11 14 16 16 15 14 14 13 14 14 15 14 13 12 12 11 10 9 9 9 10 11 12 12 12 12 12 13 13 14 16 17 17 17 18 17 15 14 13 11 11 11 11 11 11 13 14 12 11 11
8 7 7 8 9 11 11 12 12 13 14 15 15 14 12 9 6 5 6 8 9 10 10 10 9 9 9 8 7 7 8 9 11 13 14 15 14 13 13 14 14 14 14 14 14 14 13 12 11 10 10 10 10 11 12 12 12 12 12 13 14 15 16 16 16 17 16 15 14 13 11 10 10 10 10 11 12 12 13 14 14 12 10 10 10
10 9 9 8 8 8 8 8 8 8 8 7 6 5 3 2 3 6 8 8 7 8 9 9 10 11 12 12 12 13 14 15 15 15 14 12 12 13 14 14 14 14 13 13 13 12 12 11 11 11 11 12 12 12 12 12 12 13 13 14 15 16 15 14 14 13 12 11 10 9 9 10 11 12 12 13 14 13 13 12 11 10 10 10 9
10 9 8 6 5 5 4 4 4 4 3 3 2 2 2 4 6 7 6 6 7 10 10 10 10 10 11 12 13 13 14 14 14 13 12 12 14 15 15 14 13 13 12 12 12 11 12 11 12 12 12 12 12 12 12 12 13 14 14 14 14 14 14 13 12 12 11 10 10 10 12 14 13 13 13 12 12 11 11 11 11 10 9 9 8
11 11 12 10 9 9 7 6 5 4 3 3 2 4 5 5 5 5 6 8 8 7 6 5 6 7 8 10 11 11 12 13 12 12 14 15 15 15 13 12 13 12 12 12 12 11 12 11 12 12 12 12 12 13 14 15 15 16 15 15 15 15 14 13 12 12 12 12 13 13 13 12 11 11 11 11 11 11 12 11 10 9 9 8 8
-1 2 5 7 8 9 10 10 9 9 9 8 8 7 6 5 4 4 4 5 4 5 6 8 10 11 12 12 13 14 15 15 16 16 16 16 14 13 12 12 12 12 11 11 10 11 11 12 13 13 13 14 15 15 16 16 16 16 16 15 15 14 14 13 13 13 13 12 11 11 10 9 10 11 12 11 11 10 10 10 9 8 8 8 8
-1 -3 -4 -2 -1 1 3 5 6 7 7 6 6 6 5 6 6 6 7 8 9 12 14 16 17 18 18 18 18 18 17 16 16 15 14 13 13 12 12 11 10 9 10 11 12 13 14 14 14 15 16 18 19 18 18 18 16 15 14 14 14 13 13 13 12 11 9 9 8 9 10 10 11 11 10 9 9 10 9 9 9 9 9 9 10
23 17 11 8 7 7 8 9 9 9 9 8 8 8 9 10 11 12 13 14 15 16 16 16 15 15 14 14 13 12 11 11 11 10 10 10 10 9 8 8 9 10 11 13 15 16 15 15 16 17 18 19 18 17 16 15 14 14 14 14 13 12 11 10 9 8 8 8 9 9 10 11 11 10 9 9 9 9 9 8 8 9 10 10 10
36 35 31 27 22 19 17 15 14 14 13 13 14 14 14 14 14 15 16 16 15 15 13 11 10 10 9 9 8 8 8 7 7 7 7 7 6 6 8 10 14 17 17 16 15 14 15 16 18 18 17 16 15 15 15 14 14 13 12 11 10 10 9 9 9 9 9 10 11 11 10 9 10 10 9 9 9 8 8 9 9 10 10 9 10
29 33 36 36 34 32 29 26 23 21 18 16 15 15 16 16 16 16 15 13 12 10 9 9 9 8 8 8 8 8 8 7 7 6 5 5 5 6 8 12 16 18 17 15 15 16 17 17 17 17 16 15 14 14 13 12 12 11 10 9 8 8 8 8 9 9 10 11 11 11 11 9 9 9 8 9 9 9 9 10 10 10 10 10 10
19 20 23 27 30 32 33 34 34 33 31 27 22 17 15 14 14 13 12 11 10 9 9 9 9 9 9 8 8 7 6 5 5 4 6 8 11 12 15 18 18 16 14 15 18 19 18 16 16 16 15 13 11 10 10 9 9 9 9 9 9 9 8 8 8 9 9 9 9 9 9 9 9 9 8 7 8 8 9 10 9 9 9 10 10
17 17 18 20 23 26 29 32 35 37 39 40 38 34 28 22 17 13 11 10 9 8 8 7 6 6 6 6 6 6 7 9 12 16 19 22 23 24 24 23 20 17 16 17 18 17 16 15 15 13 11 9 8 8 8 8 9 8 8 8 9 10 11 10 10 10 10 10 10 10 10 10 9 9 9 9 8 9 10 10 10 9 9 9 9
14 15 20 23 24 25 27 29 31 33 34 36 38 39 38 36 32 28 24 21 18 16 15 15 15 16 17 19 21 23 25 27 28 29 28 26 25 25 24 21 18 16 17 17 16 15 13 12 11 10 9 9 8 8 8 8 9 9 9 9 8 8 8 9 10 11 11 11 11 10 9 8 8 8 9 11 11 11 11 11 11 10 9 9 9
12 14 21 23 21 20 20 21 22 24 25 26 27 29 30 31 32 32 33 32 32 31 31 31 31 32 32 32 32 31 29 27 25 23 21 20 20 19 18 17 16 15 15 14 13 11 9 9 8 9 9 9 9 9 9 8 8 9 9 10 10 9 9 8 8 8 8 8 8 8 8 8 9 9 10 10 10 10 9 9 9 9 9 10 11
10 14 20 21 14 10 11 12 13 15 17 19 20 21 21 22 23 23 24 25 26 27 28 28 27 27 26 25 24 23 21 19 18 17 17 17 17 16 15 14 13 13 12 11 10 9 9 9 9 8 8 8 8 8 8 8 8 8 9 9 10 10 10 9 8 7 6 6 6 6 7 7 7 8 9 10 10 10 10 10 10 12 13 13 13
10 12 18 19 12 5 5 7 8 9 10 11 12 14 15 17 17 17 17 17 18 19 20 20 20 19 18 18 16 16 16 15 14 14 14 14 14 12 11 10 9 9 9 8 8 8 8 8 8 7 7 7 7 8 8 8 8 8 8 7 7 8 8 8 8 8 8 8 7 7 7 6 6 6 5 5 6 8 10 12 13 13 13 13 13
11 10 14 17 14 6 2 3 4 5 5 5 6 8 10 12 13 14 15 15 15 15 14 14 13 12 12 11 11 11 11 11 11 11 11 11 10 9 9 9 9 8 8 8 8 8 7 7 7 8 8 8 9 9 9 9 8 8 8 7 7 7 8 8 8 8 8 8 8 9 9 9 9 8 7 6 6 6 7 9 10 11 12 13 14
12 11 12 14 15 10 5 3 3 3 2 2 2 3 4 6 8 9 11 12 12 12 11 10 10 9 10 10 10 10 10 10 10 10 10 9 9 9 10 9 10 10 10 9 9 8 8 8 9 9 9 9 8 8 7 7 7 7 8 8 7 7 7 7 8 8 8 9 9 9 9 9 10 11 11 11 11 10 9 8 8 8 9 11 13
14 13 12 13 14 14 11 8 7 7 6 4 4 4 4 5 6 7 8 10 11 11 12 11 11 10 10 11 11 12 12 13 13 12 12 11 11 10 11 10 11 11 10 9 9 10 10 11 10 10 8 7 7 6 6 6 6 6 7 7 7 7 6 6 7 7 8 9 9 9 9 10 11 12 13 13 13 14 14 13 13 13 12 11 11
16 14 13 13 14 14 14 14 13 12 12 11 10 10 10 10 10 11 11 11 11 11 12 12 12 12 12 12 12 13 13 12 12 12 12 11 11 10 10 10 10 9 9 9 10 10 9 9 7 7 6 6 6 5 5 5 5 5 5 6 6 6 6 7 7 8 8 9 9 10 11 12 12 13 13 14 14 15 15 16 16 16 16 15 14
18 15 13 13 13 12 13 14 14 15 15 15 15 15 15 14 13 12 12 12 12 13 13 13 13 13 12 12 12 12 12 12 12 12 11 10 10 10 9 9 8 8 8 8 7 6 5 4 5 5 5 5 5 6 6 6 6 6 6 6 7 8 9 10 10 10 10 11 11 12 13 13 14 14 14 14 15 15 16 17 18 18 18 18 18
19 18 15 13 12 12 12 13 14 15 15 16 16 15 14 14 14 13 13 13 13 13 13 13 13 13 13 12 12 11 10 9 8 8 8 8 7 7 6 6 6 6 6 6 5 5 5 6 6 7 7 7 7 7 7 7 7 8 8 8 9 9 11 12 13 14 15 15 15 14 14 14 14 14 15 16 17 17 18 18 18 18 18 18 18
18 17 16 14 13 13 13 13 14 14 14 14 14 14 13 13 12 12 13 13 13 13 12 11 11 11 10 9 8 7 7 6 6 6 6 6 5 6 6 7 7 7 7 7 7 7 7 7 7 7 8 8 8 9 9 10 10 10 11 11 12 12 12 12 13 14 15 16 16 16 16 17 17 17 18 18 18 18 17 16 16 16 16 17 18
17 16 15 15 14 13 14 14 13 13 13 13 13 13 14 14 14 13 12 12 11 11 10 9 8 8 7 7 7 7 7 7 6 6 7 7 7 8 8 8 8 8 8 8 8 9 9 10 10 11 11 12 13 14 15 16 16 16 17 17 18 18 18 18 17 17 17 17 17 17 17 17 17 17 17 17 16 16 15 15 16 17 18 18 18
16 16 15 14 14 13 13 14 14 14 14 15 15 14 14 13 13 11 10 8 7 6 6 7 7 7 8 8 8 8 8 8 9 10 10 10 10 10 10 10 11 13 15 17 19 21 23 25 26 27 28 28 28 28 28 28 28 27 26 26 25 25 24 24 23 22 21 20 19 19 18 18 18 18 18 19 19 20 20 20 20 20 19 18 16
15 15 15 14 15 14 14 15 15 15 15 14 13 11 9 7 7 7 7 7 7 7 8 8 8 8 8 8 9 10 11 11 11 11 11 12 13 15 17 20 25 30 34 38 41 43 46 48 49 50 51 50 50 49 47 45 43 41 38 35 32 30 28 26 24 23 23 22 22 22 21 21 21 21 20 20 20 19 19 19 19 18 16 15 14
15 15 15 15 16 15 16 16 14 13 11 9 7 7 6 6 7 7 7 7 8 8 9 9 8 9 10 11 12 12 11 11 12 13 16 19 22 27 31 36 41 43 43 44 45 46 47 48 49 49 50 50 50 50 49 48 47 46 45 43 40 38 36 34 32 31 29 28 27 25 23 22 20 19 17 16 15 13 12 11 10 10 9 9 9
16 16 16 15 15 14 13 11 9 7 6 6 6 7 7 7 8 8 8 8 8 8 9 9 10 11 12 12 11 11 13 15 18 21 25 28 32 34 36 36 34 31 28 26 25 25 25 25 25 25 25 26 27 27 28 29 30 30 30 30 29 28 27 25 24 22 20 18 16 15 13 12 11 10 10 9 8 8 7 6 6 6 6 6 6
16 16 15 13 11 9 7 6 6 7 7 7 8 8 8 8 8 8 8 9 9 9 10 11 12 12 12 12 14 17 21 23 26 27 29 30 30 28 25 22 18 15 14 13 12 11 11 10 10 10 9 9 10 9 9 10 10 10 10 10 10 10 10 9 9 9 8 8 8 8 8 8 8 9 9 9 9 9 9 9 9 8 8 8 8
14 13 10 8 7 6 6 7 7 7 7 8 8 8 8 8 9 9 10 10 11 11 12 13 12 12 14 17 21 23 25 26 27 27 25 22 20 17 14 12 11 9 9 9 8 8 8 8 8 8 8 8 8 8 7 8 7 7 8 8 8 8 9 9 9 10 9 10 10 10 10 10 10 9 9 9 9 9 9 10 10 10 10 10 10
9 7 6 5 6 6 7 7 7 7 8 8 8 8 9 10 10 10 11 11 12 13 13 12 12 15 19 23 24 24 24 24 23 21 18 14 13 11 10 9 8 8 8 8 9 9 9 9 10 10 10 10 10 10 9 9 9 9 9 9 9 9 10 10 10 10 10 10 10 10 10 10 10 11 12 12 13 14 15 16 16 17 18 18 18
6 5 5 6 7 7 7 7 7 8 8 9 9 10 10 10 11 11 12 12 13 13 12 12 16 21 23 23 23 22 22 21 18 15 12 11 11 10 8 8 8 8 8 8 8 9 10 10 10 11 11 11 11 11 10 10 10 9 9 9 9 9 9 9 10 10 11 12 13 13 14 15 16 16 17 18 18 19 19 20 20 21 21 22 21
5 6 6 6 6 6 6 7 8 9 9 10 10 11 10 11 11 12 13 13 12 12 13 17 21 23 22 21 21 21 20 17 14 11 10 10 9 8 8 8 8 8 8 8 8 8 9 9 9 9 10 10 10 10 11 11 10 10 10 9 9 9 10 11 13 14 15 16 17 17 18 19 19 20 20 20 21 21 21 21 21 21 21 21 20
6 7 7 7 6 6 7 7 8 9 9 10 10 11 11 12 12 12 12 12 12 12 16 21 24 22 20 20 21 19 17 14 11 10 10 9 7 7 8 8 7 7 6 6 6 7 7 8 8 8 8 9 9 10 10 10 10 10 10 10 11 12 14 15 16 17 18 19 19 20 20 21 21 22 22 22 22 22 21 20 20 19 18 18 17
8 7 7 6 6 6 7 7 7 8 8 9 10 11 11 12 12 12 12 12 12 14 20 24 23 20 19 20 19 17 15 12 10 10 9 8 6 6 7 6 6 6 5 5 6 6 7 8 8 8 8 9 9 9 10 10 10 10 11 12 14 16 17 17 18 19 19 20 20 20 22 22 22 22 22 21 20 19 19 18 19 19 19 19 20
9 8 6 6 6 5 5 4 4 5 7 8 10 11 11 12 12 12 12 12 13 16 23 24 20 17 19 19 18 16 14 11 10 10 9 6 5 5 5 5 5 4 4 4 4 5 6 7 8 9 9 9 8 9 9 10 10 12 14 16 17 17 18 19 20 20 20 20 21 22 22 22 21 21 21 21 22 23 24 25 27 28 29 30 31
8 7 6 6 5 4 3 2 2 3 5 8 10 11 11 12 12 12 12 12 13 18 25 24 18 16 19 19 17 16 14 11 10 10 8 6 5 5 4 4 4 3 3 3 3 4 5 7 9 10 9 9 8 9 9 10 12 14 16 17 17 19 20 20 19 20 21 22 22 21 20 19 21 23 25 28 30 32 33 34 34 34 34 33 33
9 7 6 5 4 3 2 1 1 2 4 7 10 11 11 11 12 12 12 12 13 19 26 24 17 15 18 19 17 16 14 11 10 9 8 6 5 4 4 4 4 3 3 4 3 4 6 8 9 10 10 8 9 9 10 12 14 16 16 17 19 20 20 19 19 21 22 21 19 18 19 22 27 31 33 34 35 34 33 33 32 32 32 32 32
7 6 5 4 3 2 1 0 1 2 4 7 10 10 11 12 12 12 12 12 12 19 26 24 17 14 18 19 17 16 14 11 10 9 8 7 6 5 4 4 4 4 4 4 4 5 7 9 10 10 9 8 9 10 11 14 16 16 16 18 19 19 19 20 22 22 20 17 17 19 24 29 32 34 33 32 31 30 29 29 29 30 30 31 32
7 6 5 3 2 2 1 1 2 3 4 7 10 10 11 13 13 11 11 11 12 17 25 26 18 13 16 18 17 16 14 11 10 9 8 7 7 6 5 5 5 5 5 5 4 6 9 10 10 10 9 9 9 11 13 15 16 16 17 19 19 19 20 23 23 20 17 16 18 22 27 30 32 31 29 28 27 26 26 26 26 27 27 28 29
8 6 5 4 3 2 2 2 3 4 6 8 10 10 12 13 13 11 11 11 11 16 25 27 20 13 14 17 17 16 14 12 10 9 9 7 7 7 6 6 6 6 5 5 6 8 11 11 10 9 9 10 10 12 15 16 16 16 18 19 18 20 23 24 22 18 16 17 19 22 27 30 30 28 26 24 23 23 23 23 23 24 24 24 25
9 8 7 5 4 3 3 4 4 5 6 8 9 11 12 14 13 10 10 11 11 15 23 28 22 14 13 16 17 15 15 13 11 10 9 8 7 7 7 6 6 6 5 6 9 11 11 10 9 9 10 10 11 13 16 16 16 17 18 18 19 23 25 23 19 16 16 17 18 21 25 28 28 28 27 25 23 23 22 22 22 22 22 22 23
10 10 8 6 5 5 5 5 5 6 7 8 10 12 13 14 13 10 9 10 11 13 22 29 25 15 11 14 16 15 14 13 11 10 9 8 8 8 7 6 6 6 7 9 11 11 10 9 9 9 10 11 13 15 16 16 16 17 18 19 22 25 25 21 17 17 18 17 17 19 23 25 26 27 27 26 25 25 25 25 25 25 25 25 25
Height
5510 5509 5509 5509 5509 5508 5507 5507 5506 5505 5505 5504 5504 5503 5502 5501 5500 5500 5500 5500 5499 5499 5500 5499 5499 5498 5498 5498 5498 5497 5496 5496 5495 5494 5494 5495 5495 5494 5494 5493 5493 5493 5492 5491 5491 5490 5489 5489 5488 5487 5484 5484 5484 5483 5482 5480 5478 5477 5476 5475 5474 5474 5472 5470 5472 5475 5474 5474 5474 5472 5470 5470 5468 5468 5467 5466 5466 5466 5466 5465 5465 5464 5464 5463 5463
5497 5497 5497 5497 5497 5496 5496 5496 5495 5495 5494 5493 5492 5492 5491 5490 5489 5489 5490 5489 5488 5488 5489 5488 5488 5487 5488 5488 5487 5486 5486 5485 5483 5483 5483 5484 5483 5483 5482 5481 5482 5482 5481 5481 5480 5478 5478 5478 5477 5476 5473 5472 5472 5471 5470 5468 5466 5466 5465 5463 5463 5462 5461 5459 5459 5461 5462 5462 5462 5460 5459 5459 5458 5457 5456 5455 5454 5454 5454 5453 5452 5452 5451 5451 5451
5485 5485 5485 5484 5484 5484 5484 5484 5484 5483 5482 5481 5481 5480 5480 5479 5478 5479 5479 5478 5477 5477 5477 5476 5476 5476 5477 5477 5476 5475 5474 5473 5472 5472 5472 5472 5472 5471 5471 5470 5470 5470 5470 5470 5468 5467 5466 5467 5466 5464 5461 5460 5461 5460 5458 5457 5455 5454 5453 5452 5451 5450 5449 5446 5446 5448 5449 5449 5449 5448 5448 5447 5447 5445 5444 5444 5442 5442 5442 5441 5440 5439 5439 5438 5439
5474 5473 5473 5472 5472 5472 5472 5471 5471 5471 5470 5469 5469 5469 5469 5468 5467 5467 5467 5466 5465 5465 5465 5465 5465 5465 5465 5465 5464 5464 5463 5462 5461 5461 5461 5461 5460 5460 5459 5459 5459 5459 5459 5458 5457 5455 5455 5455 5455 5452 5449 5449 5449 5448 5447 5445 5444 5443 5441 5440 5439 5438 5437 5434 5434 5434 5435 5436 5437 5437 5436 5435 5436 5434 5432 5432 5431 5430 5430 5429 5428 5427 5427 5427 5428
5462 5461 5461 5460 5460 5460 5459 5459 5459 5458 5458 5457 5457 5457 5457 5456 5455 5455 5454 5454 5454 5453 5453 5453 5453 5453 5454 5453 5453 5452 5452 5451 5450 5450 5449 5448 5448 5448 5447 5447 5447 5447 5447 5446 5445 5444 5444 5444 5443 5440 5438 5438 5438 5436 5435 5433 5432 5431 5430 5428 5426 5425 5424 5422 5422 5421 5422 5424 5425 5424 5424 5424 5424 5423 5421 5420 5419 5418 5418 5418 5417 5416 5415 5415 5416
5450 5450 5449 5449 5448 5448 5447 5447 5447 5446 5446 5446 5445 5445 5445 5444 5443 5443 5443 5442 5442 5442 5442 5442 5442 5442 5442 5442 5441 5441 5440 5439 5439 5438 5437 5437 5436 5436 5436 5435 5435 5435 5435 5434 5433 5433 5432 5432 5431 5428 5427 5427 5426 5424 5423 5421 5420 5419 5418 5416 5414 5412 5411 5411 5410 5408 5409 5411 5412 5412 5413 5412 5411 5411 5410 5408 5407 5407 5407 5407 5406 5404 5403 5403 5404
5439 5439 5438 5437 5437 5437 5436 5436 5435 5435 5435 5434 5433 5433 5432 5432 5432 5431 5431 5431 5431 5431 5431 5431 5430 5430 5430 5430 5430 5429 5428 5428 5427 5427 5426 5425 5425 5425 5424 5424 5423 5423 5422 5422 5421 5421 5421 5420 5419 5417 5416 5415 5414 5412 5410 5409 5408 5407 5406 5404 5402 5400 5400 5399 5398 5397 5397 5398 5399 5400 5400 5400 5399 5399 5398 5396 5395 5396 5395 5394 5394 5393 5392 5392 5394
5429 5428 5427 5427 5426 5426 5425 5425 5425 5424 5423 5423 5422 5422 5421 5421 5421 5421 5420 5420 5420 5420 5420 5419 5419 5419 5419 5419 5418 5418 5417 5417 5416 5415 5415 5414 5414 5413 5412 5412 5411 5411 5410 5410 5410 5409 5409 5408 5407 5405 5404 5403 5402 5400 5398 5397 5396 5395 5394 5392 5390 5389 5388 5387 5386 5385 5385 5385 5385 5387 5387 5387 5387 5387 5386 5384 5384 5384 5383 5381 5383 5383 5381 5381 5383
5419 5418 5417 5416 5415 5415 5414 5413 5413 5412 5412 5412 5411 5411 5411 5411 5410 5410 5410 5410 5409 5409 5409 5408 5408 5408 5407 5407 5407 5407 5406 5406 5405 5404 5403 5403 5402 5402 5401 5400 5399 5399 5399 5399 5398 5398 5397 5396 5395 5394 5393 5392 5390 5388 5387 5385 5384 5383 5382 5380 5379 5378 5377 5375 5374 5374 5373 5373 5373 5374 5374 5375 5375 5374 5373 5373 5372 5371 5369 5369 5372 5372 5369 5369 5372
5409 5408 5407 5405 5404 5404 5403 5402 5402 5401 5401 5401 5400 5400 5400 5400 5400 5400 5399 5399 5398 5398 5398 5397 5397 5396 5396 5396 5395 5395 5394 5394 5393 5392 5392 5391 5391 5390 5389 5389 5388 5387 5387 5387 5386 5386 5385 5384 5383 5382 5381 5380 5379 5377 5376 5374 5373 5372 5370 5369 5368 5366 5365 5364 5363 5362 5361 5362 5362 5362 5362 5363 5363 5361 5361 5361 5359 5358 5358 5358 5359 5359 5358 5359 5361
5398 5397 5396 5395 5394 5393 5392 5392 5391 5391 5390 5390 5390 5390 5390 5390 5389 5389 5388 5388 5388 5387 5387 5386 5386 5385 5385 5384 5384 5383 5383 5382 5381 5381 5380 5380 5379 5378 5377 5377 5376 5376 5375 5375 5374 5374 5373 5372 5371 5370 5369 5368 5367 5365 5364 5363 5362 5360 5358 5357 5356 5355 5353 5353 5352 5352 5351 5351 5351 5351 5350 5352 5351 5349 5349 5348 5346 5346 5346 5346 5346 5347 5346 5347 5350
5387 5386 5385 5385 5384 5382 5382 5381 5380 5380 5380 5380 5379 5379 5379 5379 5378 5378 5378 5377 5377 5377 5376 5376 5375 5375 5374 5373 5373 5372 5371 5371 5370 5370 5369 5368 5367 5366 5365 5365 5364 5364 5363 5363 5362 5362 5361 5360 5359 5358 5358 5356 5355 5353 5352 5351 5350 5348 5347 5346 5345 5344 5343 5341 5341 5340 5340 5340 5340 5340 5340 5339 5338 5338 5337 5335 5333 5333 5334 5335 5335 5334 5334 5335 5338
5375 5375 5374 5373 5373 5372 5371 5370 5370 5369 5369 5368 5368 5368 5368 5367 5367 5367 5367 5366 5366 5366 5365 5364 5364 5363 5362 5362 5361 5360 5360 5359 5359 5358 5356 5355 5354 5353 5353 5353 5353 5353 5352 5351 5350 5350 5349 5348 5347 5346 5345 5344 5343 5341 5340 5339 5338 5337 5336 5335 5334 5334 5332 5330 5330 5329 5330 5330 5330 5330 5330 5327 5327 5327 5326 5322 5321 5322 5323 5323 5322 5321 5322 5323 5325
5363 5363 5362 5362 5361 5361 5360 5359 5359 5358 5357 5357 5357 5356 5356 5356 5355 5355 5355 5355 5354 5354 5353 5352 5352 5351 5351 5350 5350 5349 5349 5348 5347 5346 5345 5343 5342 5343 5343 5343 5342 5341 5341 5340 5339 5338 5338 5337 5336 5334 5333 5332 5331 5329 5328 5327 5326 5325 5324 5324 5324 5323 5322 5320 5319 5319 5319 5319 5319 5319 5318 5317 5316 5316 5313 5310 5310 5311 5311 5310 5309 5308 5310 5312 5312
5350 5349 5349 5349 5349 5348 5348 5347 5347 5346 5346 5346 5345 5345 5345 5345 5344 5344 5343 5343 5343 5342 5341 5341 5340 5340 5339 5339 5338 5338 5337 5337 5336 5335 5333 5332 5332 5333 5333 5332 5332 5331 5330 5329 5328 5327 5326 5325 5324 5323 5321 5320 5319 5318 5317 5316 5315 5315 5314 5313 5313 5312 5311 5310 5308 5308 5308 5309 5309 5308 5307 5306 5305 5303 5301 5299 5299 5299 5298 5297 5297 5297 5298 5299 5300
5337 5336 5336 5335 5335 5335 5335 5335 5335 5334 5334 5334 5334 5334 5334 5334 5333 5333 5332 5332 5332 5331 5331 5330 5330 5330 5329 5329 5328 5327 5327 5326 5325 5324 5322 5321 5323 5323 5322 5322 5321 5321 5320 5318 5317 5316 5315 5314 5313 5312 5311 5309 5308 5306 5306 5305 5305 5304 5304 5303 5302 5302 5301 5300 5298 5297 5297 5298 5299 5298 5296 5295 5293 5291 5290 5288 5287 5287 5284 5284 5286 5285 5284 5286 5287
5324 5324 5323 5323 5322 5322 5322 5322 5322 5322 5322 5322 5322 5322 5322 5322 5322 5322 5322 5321 5321 5321 5321 5320 5320 5319 5319 5318 5317 5317 5316 5315 5315 5314 5312 5312 5313 5313 5311 5311 5310 5310 5309 5308 5306 5305 5304 5303 5302 5301 5300 5299 5297 5296 5295 5294 5295 5294 5294 5293 5292 5291 5291 5290 5287 5287 5287 5286 5287 5287 5286 5284 5281 5280 5279 5276 5275 5274 5271 5273 5275 5271 5270 5272 5274
5313 5313 5312 5311 5311 5310 5310 5310 5310 5309 5309 5310 5310 5310 5310 5310 5310 5311 5311 5310 5310 5310 5310 5310 5309 5309 5308 5308 5307 5306 5306 5305 5304 5304 5302 5302 5303 5302 5301 5300 5299 5298 5298 5297 5296 5295 5294 5293 5292 5291 5290 5289 5287 5286 5285 5284 5284 5284 5283 5283 5282 5282 5281 5279 5277 5277 5277 5276 5276 5275 5274 5273 5270 5269 5268 5265 5263 5261 5259 5262 5262 5257 5256 5260 5260
5304 5303 5302 5301 5300 5299 5298 5298 5298 5297 5297 5297 5298 5298 5298 5298 5299 5299 5299 5299 5299 5299 5299 5299 5298 5298 5297 5297 5296 5296 5295 5294 5294 5293 5292 5291 5292 5292 5291 5290 5289 5288 5287 5286 5285 5285 5284 5283 5283 5282 5281 5279 5278 5277 5275 5274 5274 5274 5273 5272 5273 5273 5271 5267 5267 5267 5265 5265 5265 5263 5262 5261 5258 5257 5256 5254 5251 5248 5247 5249 5249 5244 5244 5246 5246
5296 5295 5293 5292 5290 5289 5288 5288 5287 5286 5286 5286 5286 5287 5287 5287 5287 5288 5288 5288 5288 5288 5288 5288 5288 5287 5287 5286 5286 5285 5284 5284 5283 5282 5281 5280 5280 5280 5280 5279 5278 5278 5277 5276 5276 5275 5275 5274 5273 5272 5271 5270 5268 5267 5265 5264 5264 5264 5263 5263 5263 5262 5259 5256 5257 5256 5254 5254 5254 5252 5251 5249 5246 5244 5243 5241 5239 5236 5234 5233 5234 5233 5232 5232 5232
5289 5287 5286 5284 5282 5281 5280 5279 5278 5277 5277 5276 5276 5276 5277 5277 5277 5277 5277 5278 5278 5278 5278 5277 5277 5277 5276 5276 5275 5275 5274 5273 5272 5271 5271 5270 5269 5270 5270 5269 5268 5268 5268 5267 5267 5266 5265 5264 5263 5262 5261 5260 5259 5258 5256 5255 5253 5252 5253 5252 5252 5250 5248 5247 5247 5245 5244 5244 5243 5241 5240 5238 5236 5234 5231 5229 5228 5225 5221 5219 5219 5219 5218 5218 5218
5281 5280 5278 5277 5275 5274 5273 5272 5271 5270 5269 5268 5268 5268 5268 5268 5268 5268 5267 5268 5268 5268 5267 5267 5267 5266 5266 5266 5265 5265 5265 5264 5262 5262 5261 5261 5260 5260 5260 5260 5259 5259 5259 5259 5258 5257 5256 5255 5254 5252 5251 5250 5249 5248 5247 5245 5243 5242 5241 5240 5239 5238 5237 5237 5236 5234 5233 5232 5231 5230 5229 5227 5225 5223 5221 5218 5216 5212 5209 5207 5204 5203 5204 5204 5203
5273 5272 5271 5270 5269 5268 5267 5266 5265 5264 5263 5262 5261 5261 5260 5260 5260 5259 5259 5259 5259 5259 5258 5258 5257 5257 5257 5256 5256 5257 5256 5255 5254 5253 5253 5252 5252 5251 5251 5251 5251 5250 5251 5250 5249 5248 5247 5246 5244 5243 5242 5241 5239 5238 5236 5234 5232 5231 5230 5227 5226 5226 5225 5224 5223 5222 5221 5221 5219 5219 5218 5216 5214 5212 5209 5207 5204 5199 5196 5194 5192 5189 5188 5188 5188
5266 5265 5264 5263 5262 5261 5260 5259 5258 5258 5257 5256 5255 5255 5254 5254 5253 5253 5252 5252 5252 5251 5251 5251 5250 5249 5249 5248 5248 5249 5248 5247 5246 5245 5245 5244 5243 5243 5242 5242 5242 5242 5242 5241 5240 5239 5237 5236 5235 5233 5232 5231 5229 5227 5226 5224 5221 5220 5218 5216 5214 5214 5212 5210 5209 5209 5208 5208 5206 5206 5205 5203 5202 5201 5199 5196 5193 5189 5185 5183 5180 5176 5174 5173 5173
5259 5258 5257 5256 5255 5254 5254 5253 5252 5252 5251 5250 5250 5249 5248 5248 5247 5247 5246 5246 5245 5245 5245 5244 5244 5243 5242 5241 5241 5241 5241 5240 5239 5238 5237 5236 5235 5234 5234 5234 5234 5233 5233 5232 5231 5229 5228 5227 5225 5224 5222 5221 5219 5217 5215 5212 5210 5208 5206 5204 5203 5201 5199 5198 5197 5196 5196 5195 5193 5192 5191 5189 5187 5186 5185 5184 5182 5179 5176 5172 5169 5165 5162 5159 5159
5252 5251 5250 5249 5248 5248 5247 5247 5246 5246 5245 5244 5244 5243 5243 5242 5241 5241 5240 5240 5239 5239 5238 5238 5237 5237 5236 5235 5234 5233 5233 5232 5231 5230 5229 5228 5227 5226 5226 5226 5225 5224 5223 5222 5221 5219 5218 5217 5216 5214 5213 5210 5208 5206 5204 5202 5199 5196 5194 5193 5191 5190 5188 5186 5185 5183 5183 5181 5180 5178 5177 5175 5173 5171 5170 5169 5168 5167 5164 5161 5159 5156 5152 5149 5147
5245 5244 5243 5242 5242 5241 5241 5240 5240 5239 5239 5238 5237 5237 5236 5235 5235 5234 5234 5233 5232 5232 5231 5231 5231 5230 5229 5228 5227 5226 5225 5223 5222 5222 5221 5220 5219 5218 5218 5217 5216 5215 5213 5212 5211 5210 5208 5207 5205 5203 5201 5199 5197 5195 5193 5191 5188 5185 5183 5181 5179 5178 5176 5174 5172 5171 5169 5168 5167 5166 5164 5161 5160 5158 5156 5154 5153 5152 5149 5147 5145 5144 5141 5137 5136
5238 5237 5237 5236 5235 5235 5234 5234 5233 5232 5232 5231 5231 5230 5229 5229 5228 5227 5227 5226 5225 5225 5224 5223 5223 5223 5222 5221 5220 5219 5217 5215 5214 5213 5212 5211 5211 5210 5209 5208 5207 5205 5204 5202 5201 5199 5197 5195 5193 5191 5189 5188 5186 5184 5182 5179 5177 5174 5171 5168 5166 5164 5163 5161 5160 5158 5157 5155 5154 5152 5150 5148 5146 5145 5142 5140 5140 5137 5134 5132 5131 5130 5128 5124 5123
5232 5231 5231 5230 5229 5229 5228 5227 5227 5226 5225 5225 5224 5223 5223 5222 5221 5220 5220 5219 5218 5217 5217 5216 5216 5215 5215 5214 5213 5211 5209 5207 5206 5205 5203 5202 5201 5201 5200 5199 5197 5196 5194 5192 5190 5187 5185 5183 5181 5179 5177 5175 5174 5171 5169 5166 5164 5162 5159 5156 5154 5152 5150 5148 5146 5145 5143 5141 5140 5139 5137 5135 5133 5131 5129 5127 5126 5123 5120 5118 5117 5116 5114 5111 5111
5225 5225 5225 5224 5223 5223 5222 5221 5221 5220 5219 5218 5218 5217 5216 5215 5215 5214 5213 5212 5212 5211 5210 5209 5208 5208 5207 5207 5205 5204 5202 5200 5198 5196 5195 5193 5192 5191 5190 5189 5188 5186 5184 5181 5178 5175 5174 5172 5169 5167 5164 5162 5160 5158 5155 5153 5151 5148 5146 5143 5141 5139 5137 5135 5133 5131 5129 5127 5126 5125 5123 5121 5120 5117 5115 5114 5113 5110 5107 5104 5103 5102 5100 5099 5099
5220 5219 5219 5218 5218 5217 5216 5216 5215 5214 5213 5212 5211 5211 5210 5209 5209 5208 5207 5206 5205 5204 5203 5202 5201 5200 5200 5199 5198 5196 5195 5193 5190 5188 5186 5184 5182 5181 5179 5178 5176 5174 5171 5168 5165 5163 5161 5159 5156 5153 5150 5147 5145 5143 5140 5138 5136 5134 5131 5129 5127 5126 5124 5122 5120 5118 5116 5114 5113 5111 5109 5108 5106 5104 5102 5100 5099 5097 5094 5092 5090 5088 5087 5086 5086
5214 5213 5213 5213 5212 5211 5211 5210 5209 5208 5208 5207 5206 5205 5204 5203 5203 5202 5201 5200 5199 5198 5197 5196 5195 5193 5192 5191 5190 5188 5187 5185 5182 5180 5177 5175 5173 5171 5169 5166 5164 5161 5158 5155 5153 5150 5148 5145 5142 5139 5137 5133 5131 5128 5126 5123 5121 5119 5117 5115 5113 5111 5110 5108 5107 5105 5103 5102 5100 5098 5096 5095 5093 5091 5090 5088 5086 5085 5083 5080 5078 5076 5075 5074 5074
5209 5208 5208 5207 5207 5206 5205 5205 5204 5203 5202 5202 5201 5200 5199 5198 5197 5196 5195 5194 5193 5192 5191 5189 5188 5186 5185 5183 5182 5180 5178 5176 5174 5171 5169 5166 5164 5162 5159 5155 5152 5150 5146 5143 5140 5137 5134 5130 5128 5125 5122 5119 5117 5115 5113 5110 5108 5106 5104 5102 5100 5098 5097 5095 5094 5092 5090 5089 5087 5085 5084 5082 5080 5079 5077 5075 5074 5073 5071 5069 5067 5065 5064 5063 5063
5203 5203 5202 5202 5201 5201 5200 5200 5199 5198 5198 5197 5196 5195 5194 5193 5192 5190 5188 5187 5185 5184 5183 5182 5181 5179 5177 5175 5173 5171 5169 5167 5165 5162 5159 5157 5155 5152 5148 5145 5142 5139 5135 5131 5128 5125 5121 5118 5115 5112 5109 5106 5104 5102 5100 5098 5096 5095 5093 5091 5089 5088 5086 5084 5083 5081 5079 5077 5076 5074 5072 5070 5068 5066 5065 5063 5061 5060 5059 5057 5056 5054 5053 5052 5052
5198 5198 5197 5197 5196 5196 5195 5195 5194 5194 5193 5193 5192 5191 5189 5188 5187 5185 5183 5181 5179 5177 5175 5173 5172 5170 5168 5166 5164 5162 5160 5157 5154 5152 5149 5147 5145 5142 5138 5135 5132 5129 5125 5122 5119 5116 5113 5109 5106 5103 5100 5097 5095 5092 5090 5088 5087 5085 5084 5082 5081 5079 5077 5076 5074 5072 5070 5068 5066 5064 5062 5060 5058 5056 5054 5053 5051 5049 5047 5046 5044 5042 5041 5040 5040
5193 5193 5193 5192 5192 5191 5191 5191 5190 5189 5189 5188 5187 5186 5184 5183 5181 5179 5178 5175 5173 5171 5168 5165 5164 5162 5160 5158 5156 5153 5150 5148 5145 5142 5139 5137 5135 5132 5130 5127 5124 5121 5118 5115 5113 5110 5107 5104 5101 5098 5096 5093 5090 5087 5085 5083 5081 5079 5077 5076 5074 5072 5070 5068 5066 5064 5062 5060 5058 5056 5053 5051 5049 5047 5045 5044 5041 5039 5037 5035 5033 5032 5030 5028 5027
5189 5189 5189 5188 5188 5188 5187 5187 5186 5185 5184 5183 5181 5180 5179 5177 5175 5173 5171 5169 5167 5164 5161 5159 5156 5153 5151 5149 5147 5144 5142 5139 5137 5134 5131 5129 5127 5125 5123 5121 5118 5115 5113 5110 5108 5105 5103 5100 5097 5095 5092 5089 5087 5084 5082 5079 5077 5075 5072 5070 5068 5066 5064 5062 5059 5057 5055 5052 5049 5047 5044 5042 5040 5037 5035 5034 5031 5029 5027 5025 5023 5021 5019 5017 5015
5185 5185 5185 5185 5184 5184 5183 5182 5181 5180 5179 5178 5176 5174 5172 5171 5169 5167 5164 5162 5160 5157 5154 5151 5148 5145 5142 5140 5138 5135 5133 5131 5129 5127 5125 5123 5121 5119 5118 5116 5113 5111 5108 5106 5103 5101 5098 5096 5093 5091 5088 5085 5083 5080 5078 5075 5072 5070 5067 5065 5062 5060 5057 5055 5052 5049 5047 5044 5041 5038 5035 5032 5029 5027 5024 5022 5020 5017 5015 5013 5011 5009 5007 5005 5003
5182 5181 5181 5181 5180 5180 5179 5178 5176 5175 5174 5172 5170 5168 5166 5164 5162 5160 5158 5155 5152 5150 5147 5144 5141 5138 5135 5132 5130 5128 5125 5124 5122 5121 5119 5118 5116 5114 5112 5110 5108 5106 5104 5101 5099 5096 5094 5091 5089 5086 5083 5081 5078 5075 5073 5070 5067 5064 5061 5058 5056 5053 5050 5047 5044 5041 5038 5035 5031 5028 5025 5021 5018 5015 5012 5010 5007 5004 5002 5000 4997 4995 4993 4991 4989
5178 5178 5177 5177 5176 5175 5174 5173 5171 5170 5168 5166 5165 5163 5160 5158 5156 5153 5150 5148 5145 5142 5140 5137 5134 5131 5128 5125 5123 5121 5119 5117 5116 5115 5114 5112 5110 5109 5107 5105 5103 5101 5098 5096 5094 5091 5089 5086 5084 5081 5078 5076 5073 5070 5067 5064 5061 5058 5055 5051 5048 5045 5042 5039 5035 5032 5029 5025 5021 5017 5014 5010 5007 5004 5000 4997 4994 4991 4988 4986 4983 4981 4979 4977 4975
5174 5174 5173 5173 5172 5171 5169 5168 5166 5165 5163 5161 5159 5157 5154 5152 5149 5146 5144 5141 5138 5135 5132 5129 5126 5124 5121 5119 5117 5115 5113 5112 5111 5109 5108 5107 5105 5103 5102 5100 5098 5096 5093 5091 5089 5086 5083 5081 5078 5075 5073 5070 5067 5064 5061 5058 5055 5051 5048 5044 5040 5036 5033 5029 5025 5022 5018 5014 5010 5006 5002 4999 4995 4992 4988 4984 4981 4978 4975 4973 4970 4967 4965 4963 4961
5170 5170 5169 5168 5167 5166 5165 5163 5161 5159 5158 5155 5153 5151 5148 5145 5143 5140 5137 5134 5132 5128 5125 5122 5120 5117 5115 5113 5111 5110 5108 5107 5106 5104 5103 5102 5100 5099 5097 5095 5093 5091 5089 5086 5083 5081 5078 5075 5073 5070 5067 5064 5061 5058 5055 5052 5048 5044 5040 5036 5032 5028 5024 5019 5015 5011 5007 5003 4999 4995 4991 4987 4983 4980 4976 4973 4969 4966 4963 4960 4957 4955 4952 4950 4948
5166 5166 5165 5164 5163 5161 5160 5158 5156 5154 5152 5150 5147 5145 5142 5139 5137 5134 5131 5128 5125 5122 5119 5116 5113 5111 5109 5107 5106 5105 5103 5102 5101 5100 5098 5097 5096 5094 5093 5091 5089 5086 5084 5081 5079 5076 5073 5070 5067 5064 5061 5058 5055 5052 5048 5045 5041 5037 5033 5029 5024 5019 5015 5010 5006 5001 4997 4992 4988 4984 4980 4977 4973 4969 4965 4962 4958 4954 4951 4948 4945 4942 4940 4937 4935
5162 5161 5160 5159 5158 5156 5155 5153 5151 5149 5146 5144 5141 5139 5136 5134 5131 5128 5125 5122 5119 5116 5113 5110 5108 5105 5103 5102 5101 5100 5098 5097 5096 5095 5094 5092 5091 5090 5088 5086 5084 5081 5079 5077 5074 5071 5068 5065 5062 5059 5056 5052 5049 5045 5042 5038 5034 5030 5025 5021 5016 5011 5007 5002 4997 4992 4988 4983 4979 4975 4971 4967 4963 4959 4955 4951 4947 4944 4940 4936 4933 4930 4927 4925 4923
5158 5157 5155 5154 5153 5151 5149 5148 5146 5143 5141 5138 5136 5133 5130 5128 5125 5122 5119 5116 5113 5110 5107 5104 5102 5100 5098 5097 5095 5094 5093 5092 5091 5090 5089 5088 5086 5085 5083 5081 5079 5076 5074 5072 5069 5066 5063 5060 5057 5053 5050 5046 5043 5039 5035 5031 5027 5022 5018 5013 5008 5003 4999 4994 4989 4984 4980 4975 4971 4967 4963 4958 4954 4950 4946 4941 4937 4934 4930 4926 4923 4920 4917 4915 4912
5153 5152 5151 5149 5148 5146 5144 5142 5140 5138 5136 5133 5130 5127 5125 5122 5119 5116 5113 5110 5107 5104 5101 5098 5096 5095 5093 5092 5090 5089 5088 5087 5086 5085 5084 5083 5081 5079 5078 5076 5074 5071 5069 5066 5064 5061 5058 5055 5051 5048 5044 5040 5036 5033 5028 5024 5020 5015 5010 5006 5001 4996 4991 4987 4982 4977 4973 4968 4964 4960 4955 4951 4946 4941 4937 4933 4929 4925 4922 4919 4916 4913 4910 4907 4905
5149 5147 5146 5144 5143 5141 5139 5137 5135 5132 5130 5127 5124 5121 5118 5116 5113 5110 5107 5104 5101 5098 5095 5093 5091 5089 5088 5086 5085 5084 5083 5082 5081 5080 5079 5077 5076 5074 5073 5071 5069 5066 5064 5061 5058 5055 5052 5049 5046 5042 5038 5034 5030 5026 5022 5018 5013 5008 5004 4999 4994 4989 4985 4980 4976 4971 4967 4963 4958 4954 4949 4944 4939 4935 4931 4927 4923 4920 4917 4914 4911 4908 4905 4902 4899
5144 5143 5141 5139 5137 5135 5133 5131 5129 5126 5124 5121 5118 5115 5112 5109 5106 5104 5101 5098 5095 5092 5090 5087 5085 5084 5082 5081 5080 5079 5078 5077 5076 5075 5073 5072 5071 5069 5068 5066 5064 5061 5059 5056 5053 5050 5047 5044 5040 5036 5033 5029 5025 5020 5016 5011 5007 5002 4997 4993 4988 4983 4979 4975 4970 4966 4962 4957 4953 4948 4943 4939 4934 4930 4926 4923 4919 4916 4913 4910 4907 4904 4901 4899 4896
5139 5138 5136 5134 5132 5130 5128 5125 5123 5120 5118 5115 5112 5109 5106 5103 5100 5098 5095 5092 5089 5087 5084 5082 5080 5078 5077 5076 5074 5073 5072 5071 5070 5069 5068 5067 5066 5064 5063 5061 5059 5056 5054 5051 5048 5045 5042 5038 5035 5031 5027 5023 5019 5015 5010 5006 5001 4996 4992 4987 4983 4978 4974 4970 4966 4962 4958 4954 4949 4945 4940 4935 4931 4927 4924 4920 4917 4914 4911 4908 4905 4903 4900 4897 4894
5134 5133 5131 5129 5127 5124 5122 5120 5117 5114 5112 5109 5106 5103 5100 5097 5094 5092 5089 5086 5084 5081 5079 5076 5074 5073 5072 5070 5069 5068 5067 5066 5065 5064 5063 5062 5061 5059 5057 5056 5053 5051 5049 5046 5043 5040 5037 5033 5030 5026 5022 5018 5014 5009 5005 5000 4995 4991 4986 4982 4978 4973 4969 4966 4962 4959 4955 4951 4947 4943 4938 4934 4930 4926 4922 4919 4916 4913 4910 4908 4905 4902 4899 4897 4894
5129 5127 5125 5123 5121 5119 5116 5114 5111 5108 5105 5103 5100 5097 5094 5091 5088 5086 5083 5080 5078 5075 5073 5071 5069 5067 5066 5065 5064 5063 5062 5061 5060 5059 5058 5057 5056 5054 5052 5051 5048 5046 5044 5041 5038 5035 5032 5028 5025 5021 5017 5013 5008 5004 5000 4995 4991 4986 4982 4978 4973 4969 4966 4963 4959 4956 4953 4949 4945 4941 4937 4933 4929 4926 4922 4919 4916 4913 4910 4908 4905 4902 4900 4897 4895